Simultaneous Nadir Overpasses (SNOs) Predictions

Prediction of SNOs between NOAA-19 and NPP Satellite Orbit:

Table of predicted SNOs for the next 14.0 days since TLE Epoch: 3/2/2013
Index Date (NOAA-19) Time (NOAA-19) Lat,Lon (NOAA-19) SZA (NOAA-19 ) Date (NPP) Time (NPP) Lat,Lon (NPP) SZA (NPP ) Distance(km) Time Diff (sec)
1 03/06/2013 17:46:47 80.87,-138.38 90.04 03/06/2013 17:47:56 80.88,-138.41 90.00 0.54 69
2 03/06/2013 18:37:52 -80.83, 29.83 90.13 03/06/2013 18:38:39 -80.84, 29.65 90.13 3.25 47
3 03/06/2013 19:28:48 80.83,-162.91 89.86 03/06/2013 19:29:23 80.84,-163.07 89.87 2.93 35
4 03/06/2013 20:19:55 -80.82, 4.57 90.20 03/06/2013 20:20:07 -80.82, 4.62 90.21 0.92 12
5 03/06/2013 21:10:52 80.82, 171.83 89.79 03/06/2013 21:10:52 80.82, 171.90 89.78 1.26 0
6 03/06/2013
